Location: Jackson Park
(37.2862°N, 79.9123°W)
Time: 12:18:36
(UTC+00:00)

ISS - Visible Passes

Search period start: 18 April 2026 00:00
Search period end: 28 April 2026 00:00
Orbit: 416 x 425 km, 51.6° (Epoch: 18 April)

Date Brightness Start Highest point End Pass type
(mag) Time Alt. Az. Time Alt. Az. Time Alt. Az.
18 Apr -3.7 09:36:40 21° SW 09:38:46 78° SE 09:42:08 10° NE visible
19 Apr -2.9 08:51:25 41° SE 08:51:33 41° SE 08:54:45 10° ENE visible
20 Apr -1.0 08:06:05 16° E 08:06:05 16° E 08:07:06 10° ENE visible
20 Apr -2.7 09:39:03 18° W 09:41:04 34° NNW 09:44:12 10° NNE visible
21 Apr -3.5 08:53:37 56° NW 08:53:42 56° NW 08:57:02 10° NE visible
22 Apr -1.6 08:08:07 26° NE 08:08:07 26° NE 08:09:46 10° NE visible
22 Apr -1.5 09:41:23 10° WNW 09:43:35 16° NNW 09:45:46 10° NNE visible
23 Apr -2.0 08:55:30 21° NW 08:56:04 22° NNW 08:58:47 10° NNE visible
24 Apr -1.6 08:09:52 24° N 08:09:52 24° N 08:11:40 10° NNE visible
25 Apr -0.3 07:24:10 12° NE 07:24:10 12° NE 07:24:28 10° NE visible
25 Apr -1.1 08:57:10 10° NW 08:58:35 12° NNW 08:59:59 10° N visible
26 Apr -1.2 08:11:23 16° NNW 08:11:23 16° NNW 08:13:08 10° NNE visible
27 Apr -0.4 07:25:36 13° NNE 07:25:36 13° NNE 07:26:06 10° NNE visible
